Location: Владивосток
(43.1151°N, 131.8856°E)
Time: 08:09:10
(UTC+10:00)

NOAA 18 - Visible Passes

Search period start: 25 April 2024 00:00
Search period end: 05 May 2024 00:00
Orbit: 838 x 858 km, 98.9° (Epoch: 24 April)

Date Brightness Start Highest point End Pass type
(mag) Time Alt. Az. Time Alt. Az. Time Alt. Az.
25 Apr 7.5 00:53:52 14° W 00:53:52 14° W 00:56:05 10° WNW visible
25 Apr 5.2 22:59:12 62° E 22:59:31 63° ENE 23:05:00 10° N visible
26 Apr 7.2 00:41:09 18° W 00:41:09 18° W 00:44:22 10° NW visible
26 Apr 5.5 22:46:29 48° E 22:47:05 50° ENE 22:52:26 10° N visible
27 Apr 6.9 00:28:26 23° W 00:28:26 23° W 00:32:22 10° NW visible
27 Apr 5.8 22:33:46 37° E 22:34:42 39° ENE 22:39:49 10° N visible
28 Apr 6.5 00:15:43 30° W 00:15:43 30° W 00:20:14 10° NW visible
28 Apr 6.2 22:21:03 28° E 22:22:19 31° ENE 22:27:09 10° N visible
29 Apr 6.2 00:03:00 38° W 00:03:00 38° W 00:07:59 10° NNW visible
29 Apr 6.5 22:08:20 22° E 22:09:58 25° ENE 22:14:25 10° N visible
29 Apr 5.7 23:50:17 49° W 23:50:17 49° W 23:55:40 10° NNW visible
30 Apr 6.8 21:55:37 17° E 21:57:38 20° ENE 22:01:35 10° NNE visible
30 Apr 5.3 23:37:34 63° WSW 23:37:46 63° WSW 23:43:17 10° NNW visible
01 May 7.0 21:42:54 13° E 21:45:20 16° ENE 21:48:38 10° NNE visible
01 May 5.1 23:24:51 74° SSW 23:25:17 80° WSW 23:30:51 10° NNW visible
02 May 7.7 01:06:48 10° W 01:06:48 10° W 01:07:34 10° WNW visible
02 May 7.2 21:30:38 10° E 21:33:02 13° NE 21:35:27 10° NNE visible
02 May 5.1 23:12:08 69° SE 23:12:48 81° ENE 23:18:21 10° NNW visible
03 May 7.4 00:54:05 14° W 00:54:05 14° W 00:56:51 10° WNW visible
03 May 7.4 21:20:20 10° ENE 21:20:46 10° NE 21:21:13 10° NE visible
03 May 5.3 22:59:25 55° ESE 23:00:21 64° ENE 23:05:50 10° N visible
04 May 7.1 00:41:22 18° W 00:41:25 18° W 00:45:09 10° NW visible
04 May 5.6 22:46:41 43° ESE 22:47:55 50° ENE 22:53:15 10° N visible
